EW7001 Weather Reports


Display with metric or nautical units.
time (UTC)temp
F
wind
direction
speed
MPH
gust
MPH
rain 1hr
in
rain 24hr
in
rain mn
in
humidity
%
barometer
mb
20260506083054 15 89 1.0 2.0 0.00 4.80 4.44 81 1019.0
20260506081550 14 56 1.0 3.0 0.00 4.80 4.44 80 1018.9
20260506073046 15 72 1.0 2.0 0.00 4.80 4.44 79 1018.9
20260506071543 15 68 1.0 3.0 0.00 4.80 4.44 79 1018.9
20260506061542 16 74 2.0 4.0 0.00 4.83 4.44 77 1018.4
20260506044549 25 46 0.0 2.0 0.00 4.83 4.44 64 1017.5
20260506043040 29 131 1.0 3.0 0.00 4.83 4.44 59 1017.6
20260506041536 30 269 1.0 3.0 0.00 4.83 4.44 59 1017.5
20260506040029 31 1 1.0 4.0 0.00 4.83 4.44 57 1017.3
20260506034524 31 1 2.0 5.0 0.00 4.83 4.44 56 1017.2
20260506033021 32 8 1.0 6.0 0.00 4.83 4.44 56 1017.1
20260506031517 32 37 2.0 5.0 0.00 4.83 4.44 55 1016.8
20260506030007 32 8 1.0 4.0 0.00 4.83 4.44 55 1016.5
20260506024613 34 351 3.0 6.0 0.00 4.83 4.44 53 1016.3
20260506023056 35 351 2.0 6.0 0.00 4.83 4.44 52 1015.9
20260506021545 36 20 3.0 8.0 0.00 4.83 4.44 51 1015.6
20260506020107 37 11 3.0 7.0 0.01 4.83 4.44 49 1015.3
20260506014531 38 356 5.0 9.0 0.01 4.83 4.44 49 1015.0
20260506013029 38 354 4.0 10.0 0.01 4.83 4.44 48 1014.7
20260506011526 39 333 5.0 10.0 0.05 4.83 4.44 46 1014.6
20260506010024 39 353 4.0 10.0 0.08 4.82 4.43 51 1014.5
20260506004523 39 56 2.0 9.0 0.16 4.82 4.43 54 1014.3
20260506003010 40 40 7.0 15.0 0.17 4.82 4.43 52 1014.2
20260506001509 40 4 4.0 12.0 0.22 4.78 4.38 52 1013.8
20260506000002 40 356 5.0 15.0 0.30 4.74 4.34 50 1013.8
20260505234616 41 354 4.0 15.0 0.44 4.68 4.26 44 1013.6
20260505233056 41 331 8.0 13.0 0.51 4.67 4.26 44 1013.4
20260505231556 42 23 6.0 15.0 0.51 4.58 4.17 48 1013.2
20260505230050 42 14 7.0 19.0 0.55 4.48 4.07 47 1013.0
20260505224548 44 13 8.0 18.0 0.44 4.28 3.82 42 1012.6
20260505223041 44 348 8.0 16.0 0.67 4.21 3.75 35 1012.5
20260505221544 43 354 8.0 16.0 0.62 4.12 3.66 37 1012.4
20260505220031 44 306 7.0 16.0 0.56 3.98 3.52 35 1012.4
20260505214529 44 281 7.0 24.0 0.56 3.85 3.38 34 1012.5
20260505213028 45 312 7.0 17.0 0.61 3.55 3.08 34 1012.5
20260505211531 43 356 8.0 15.0 0.73 3.51 3.04 36 1012.6
20260505210021 44 312 9.0 18.0 0.75 3.43 2.96 34 1012.8
20260505204520 44 354 12.0 20.0 0.89 3.48 2.82 36 1012.9
20260505203018 45 334 10.0 20.0 0.76 3.13 2.47 34 1012.9
20260505201515 43 333 8.0 16.0 0.74 2.97 2.31 38 1012.9
20260505200012 44 349 9.0 21.0 0.76 2.83 2.17 36 1012.9
20260505194511 43 21 7.0 17.0 0.83 2.71 1.87 37 1012.8
20260505193107 44 317 9.0 18.0 0.91 2.54 1.71 35 1012.8
20260505191506 44 325 9.0 15.0 1.14 2.41 1.57 37 1012.5
20260505190004 44 335 9.0 18.0 1.01 2.22 1.38 38 1012.3
20260505184558 44 333 7.0 19.0 0.85 2.23 1.04 38 1012.3
20260505183055 43 21 10.0 23.0 0.68 1.99 0.80 40 1012.5
20260505181629 44 347 8.0 16.0 0.41 1.62 0.43 40 1012.6
20260505180101 43 350 10.0 21.0 0.38 1.57 0.38 39 1012.8
20260505174543 42 344 7.0 16.0 0.28 1.79 0.19 42 1012.9
20260505173035 41 323 9.0 16.0 0.23 1.71 0.11 43 1013.2
20260505171632 42 331 6.0 14.0 0.22 1.62 0.02 42 1013.1
20260505170025 41 314 6.0 17.0 0.23 1.60 0.00 44 1013.3
20260505164521 41 340 7.0 13.0 0.15 1.78 1.51 46 1013.2
20260505163021 40 316 9.0 20.0 0.15 1.75 1.48 46 1013.2
20260505161519 40 334 7.0 16.0 0.11 1.67 1.40 48 1013.4
20260505153048 38 303 5.0 14.0 0.09 1.88 1.33 55 1013.5
20260505151544 38 340 8.0 14.0 0.05 1.84 1.29 54 1013.4
20260505124525 31 344 1.0 4.0 0.00 2.54 1.24 81 1012.5
20260505123030 29 108 0.0 1.0 0.00 2.54 1.24 81 1012.2
20260505121550 29 89 1.0 2.0 0.00 2.54 1.24 81 1011.9
20260505120106 28 1 1.0 2.0 0.00 2.54 1.24 80 1011.9
20260505114543 30 241 1.0 2.0 0.00 2.54 1.24 79 1011.7
20260505113040 30 314 1.0 2.0 0.00 2.54 1.24 80 1011.3
20260505111539 30 37 1.0 4.0 0.00 2.54 1.24 80 1011.3
20260505101531 30 1 1.0 4.0 0.00 2.54 1.24 84 1011.4
20260505100027 32 178 0.0 1.0 0.00 2.54 1.24 83 1011.1
20260505094555 33 234 0.0 2.0 0.00 2.54 1.24 83 1010.9
20260505093052 34 303 1.0 3.0 0.00 2.54 1.24 84 1010.8
20260505091519 34 340 1.0 3.0 0.00 2.54 1.24 84 1010.7
20260505090018 35 70 2.0 5.0 0.00 2.54 1.24 83 1010.8
20260505084553 36 1 3.0 7.0 0.00 2.54 1.24 82 1010.8